Simultaneous Nadir Overpasses (SNOs) Predictions

Prediction of SNOs near equator between NOAA-19 and NPP Satellite Orbit:

Table of predicted SNOs near equator for the next 14.0 days since TLE Epoch: 9/29/2012
Index Date (NOAA-19) Time (NOAA-19) NOAA-19 Lat,Lon Date (NPP) Time (NPP) NPP Lat,Lon Distance(km) Time Diff (sec)
1 10/10/2012 08:24:59 29.96, 72.02 10/10/2012 08:18:45 29.75, 71.06 96.08 374
2 10/10/2012 09:15:56 -29.98,-120.72 10/10/2012 09:09:27 -29.79,-121.63 90.03 389
3 10/10/2012 10:07:04 29.96, 46.50 10/10/2012 10:00:16 29.82, 45.66 82.37 408
4 10/10/2012 10:58:01 -29.98,-146.24 10/10/2012 10:50:57 -29.80,-147.00 76.31 424
5 10/10/2012 11:49:09 29.96, 20.98 10/10/2012 11:41:46 29.83, 20.29 68.57 443
6 10/10/2012 12:40:06 -29.97,-171.76 10/10/2012 12:32:28 -29.87,-172.40 62.58 458
7 10/10/2012 13:31:14 29.95, -4.54 10/10/2012 13:23:16 29.84, -5.09 54.81 478
8 10/10/2012 14:22:11 -29.97, 162.72 10/10/2012 14:13:58 -29.88, 162.23 48.78 493
9 10/10/2012 15:13:19 29.95, -30.06 10/10/2012 15:04:46 29.85, -30.47 41.12 513
10 10/10/2012 16:04:16 -29.97, 137.20 10/10/2012 15:55:28 -29.89, 136.85 35.03 528
11 10/10/2012 16:55:24 29.95, -55.58 10/10/2012 16:46:17 29.92, -55.86 27.47 547
12 10/10/2012 17:46:21 -29.96, 111.68 10/10/2012 17:36:58 -29.90, 111.47 21.41 563
13 10/10/2012 18:37:29 29.95, -81.10 10/10/2012 18:27:47 29.93, -81.24 13.62 582
14 10/10/2012 19:28:26 -29.96, 86.16 10/10/2012 19:18:29 -29.97, 86.08 7.99 597
